Regional Weather Roundup
Issued by NWS Mt. Holly, NJ

Home | Current Version | Previous Version | Text Only | Print | Product List | Glossary On
Versions: 1 2 3 4 5 6 7 8 9 10 11 12 13 14 15 16 17 18 19 20 21 22 23 24 25 26 27 28
000
ASUS41 KPHI 221812
RWRPHI

REGIONAL WEATHER ROUNDUP
NATIONAL WEATHER SERVICE MOUNT HOLLY NJ
100 PM EST MON JAN 22 2018

NOTE:  "FAIR" INDICATES FEW OR NO CLOUDS BELOW 12,000 FEET WITH NO
SIGNIFICANT WEATHER AND/OR OBSTRUCTIONS TO VISIBILITY.

 * = STATION DOES NOT REPORT PRECIPITATION (E.G. RAIN, SNOW, ETC.)
        OR FOG.

NJZ015>026-221900-
SOUTHERN NEW JERSEY

CITY           SKY/WX    TMP DP  RH WIND       PRES   REMARKS
POMONA         FAIR      58  42  55 SE3       30.12F
6HR MIN TEMP:  43; 6HR MAX TEMP:  59;

WILDWOOD*      PTSUNNY   60  42  51 S8        30.12F
MILLVILLE      FAIR      60  43  53 VRB3      30.11F
WRIGHTSTOWN    FAIR      56  40  55 E3        30.09F
MOUNT HOLLY    FAIR      57  42  57 VRB3      30.12F
TRENTON        PTSUNNY   53  40  61 NE6       30.12F
6HR MIN TEMP:  42; 6HR MAX TEMP:  53;


$$
NJZ001>014-221900-
NORTHERN NEW JERSEY

CITY           SKY/WX    TMP DP  RH WIND       PRES   REMARKS
SUSSEX         CLOUDY    43  39  86 E7        30.13F FOG
ANDOVER*         N/A     46  40  79 VRB3      30.12F
MORRISTOWN     CLOUDY    48  39  71 CALM      30.15F
NEWARK         CLOUDY    50  40  68 NE5       30.15F
TETERBORO      CLOUDY    48  39  71 E5        30.15F FOG
CALDWELL       CLOUDY    48  40  73 E6        30.15F HAZE
SOMERVILLE     PTSUNNY   51  41  68 S6        30.12F
ALLAIRE*       CLOUDY    53  40  61 CALM        N/A
TOMS RIVER*    CLOUDY    59  43  55 VRB3      30.13F

$$
PAZ043-044-047-054-055-060>062-066>071-221900-
EASTERN PENNSYLVANIA

CITY           SKY/WX    TMP DP  RH WIND       PRES   REMARKS
PHILADELPHIA   CLOUDY    57  40  52 S3        30.11F
6HR MIN TEMP:  42; 6HR MAX TEMP:  58;

NORTH PHILA    CLOUDY    55  40  56 CALM      30.13F
BLUE BELL*     CLOUDY    52  41  66 SE3       30.12F
DOYLESTOWN     CLOUDY    51  39  63 VRB3      30.10F
PERKASIE*      MOCLDY    50  41  71 E5        30.11F
POTTSTOWN      CLOUDY    52  39  61 E5        30.11F
LANCASTER      CLOUDY    53  44  71 E7        30.08F
COATESVILLE    FAIR      54  41  62 SE6       30.09F
READING        CLOUDY    50  43  77 N6        30.08F
6HR MIN TEMP:  38; 6HR MAX TEMP:  50;

ALLENTOWN      CLOUDY    51  40  65 NE6       30.11F
6HR MIN TEMP:  38; 6HR MAX TEMP:  51; 6HR PCP: TRACE;

MOUNT POCONO   CLOUDY    42  41  96 E7        30.08S
6HR MIN TEMP:  40; 6HR MAX TEMP:  49; 6HR PCP: TRACE;

HAZLETON       CLOUDY    50  41  71 E3        30.08F
LEHIGHTON      CLOUDY    48  41  76 CALM      30.11F
WILKES BARRE   CLOUDY    43  41  93 NE5       30.05F FOG

$$
DEZALL-MDZ008-012-015-019-020-221900-
DELAWARE AND EASTERN MARYLAND

CITY           SKY/WX    TMP DP  RH WIND       PRES   REMARKS
WILMINGTON     PTSUNNY   55  40  56 S8        30.11F
6HR MIN TEMP:  41; 6HR MAX TEMP:  55;

DOVER          FAIR      66  48  50 SW7       30.10F
GEORGETOWN     FAIR      66  42  41 SW14G25   30.12F
6HR MIN TEMP:  52; 6HR MAX TEMP:  67;

EASTON         PTSUNNY   64  41  42 SW10      30.14F
ABERDEEN       CLOUDY    55  43  62 S5        30.11F
PATUXENT       PTSUNNY   64  43  46 S6        30.11F
OCEAN CITY     FAIR      53  41  63 S8        30.14F
WALLOPS ISLAND CLOUDY    63  44  50 S10       30.15F
CAMBRIDGE      SUNNY     61  43  51 S7        30.12F
SALISBURY      FAIR      64  43  46 SW10      30.13F

$$
PAZ001-021-NYZ056-072-MDZ011-DCZ001-221900-
OTHER NEARBY LOCATIONS

CITY           SKY/WX    TMP DP  RH WIND       PRES   REMARKS
HARRISBURG     CLOUDY    50  42  74 E3        30.07F
STATE COLLEGE  CLOUDY    43  43 100 CALM      30.03F FOG
WILLIAMSPORT   LGT RAIN  38  38 100 E5        30.04F FOG     WCI  34
BINGHAMTON     FOG       39  39 100 SE9       30.02F VSB<1/4 WCI  33
NEW YORK CITY  FAIR      46  39  76 E6        30.18F HAZE
BALTIMORE      PTSUNNY   61  44  53 S3        30.08F
WASHINGTON DC  CLOUDY    60  43  53 S9        30.08F

$$




USA.gov is the U.S. government's official web portal to all federal, state and local government web resources and services.